�������C�����ː����j�^�v���󋵏��
Date,Time,Cs137(Bq/L),Cs134(Bq/L),�S��(Bq/L)
2016/10/04,00:00,1.4,0.14,ND
2016/10/04,00:10,1.3,0.15,ND
2016/10/04,00:20,1.3,0.15,ND
2016/10/04,00:30,1.3,0.17,ND
2016/10/04,00:40,1.3,0.17,ND
2016/10/04,00:50,1.3,0.17,ND
2016/10/04,01:00,1.3,0.17,ND
2016/10/04,01:10,1.3,0.16,ND
2016/10/04,01:20,1.3,0.15,ND
2016/10/04,01:30,1.3,0.14,ND
2016/10/04,01:40,1.4,0.13,ND
2016/10/04,01:50,1.4,0.10,ND
2016/10/04,02:00,1.3,0.14,ND
2016/10/04,02:10,1.3,0.12,ND
2016/10/04,02:20,1.3,0.13,ND
2016/10/04,02:30,1.3,0.15,ND
2016/10/04,02:40,1.3,0.15,ND
2016/10/04,02:50,1.3,0.15,ND
2016/10/04,03:00,1.4,0.13,ND
2016/10/04,03:10,1.4,0.13,ND
2016/10/04,03:20,1.4,0.12,ND
2016/10/04,03:30,1.4,0.12,ND
2016/10/04,03:40,1.3,0.12,ND
2016/10/04,03:50,1.4,0.11,ND
2016/10/04,04:00,1.4,0.11,ND
2016/10/04,04:10,1.4,0.11,ND
2016/10/04,04:20,1.4,0.11,ND
2016/10/04,04:30,1.4,0.11,ND
2016/10/04,04:40,1.3,0.13,ND
2016/10/04,04:50,1.3,0.14,ND
2016/10/04,05:00,1.3,0.15,ND
2016/10/04,05:10,1.3,0.15,ND
2016/10/04,05:20,1.3,0.16,ND
2016/10/04,05:30,1.3,0.16,ND
2016/10/04,05:40,1.3,0.15,ND
2016/10/04,05:50,1.3,0.14,ND
2016/10/04,06:00,1.3,0.13,ND
2016/10/04,06:10,1.3,0.13,ND
2016/10/04,06:20,1.3,0.13,ND
2016/10/04,06:30,1.3,0.15,ND
2016/10/04,06:40,1.3,0.15,ND
2016/10/04,06:50,1.3,0.15,ND
2016/10/04,07:00,1.4,0.13,ND
2016/10/04,07:10,1.4,0.13,ND
2016/10/04,07:20,1.4,0.12,ND
2016/10/04,07:30,1.4,0.13,ND
2016/10/04,07:40,1.4,0.14,ND
2016/10/04,07:50,1.4,0.15,ND
2016/10/04,08:00,1.4,0.15,ND
2016/10/04,08:10,1.4,0.14,ND
2016/10/04,08:20,1.4,0.15,ND
2016/10/04,08:30,1.4,0.14,ND
2016/10/04,08:40,1.3,0.16,ND
2016/10/04,08:50,1.3,0.15,ND
2016/10/04,09:00,1.3,0.16,ND
2016/10/04,09:10,1.3,0.13,ND
2016/10/04,09:20,1.2,0.16,ND
2016/10/04,09:30,1.2,0.14,ND
2016/10/04,09:40,1.2,0.13,ND
2016/10/04,09:50,1.2,0.15,ND
2016/10/04,10:00,1.3,0.12,ND
2016/10/04,10:10,1.2,0.15,ND
2016/10/04,10:20,1.2,0.14,ND
2016/10/04,10:30,1.2,0.15,ND
2016/10/04,10:40,1.2,0.15,ND
2016/10/04,10:50,1.2,0.15,ND
2016/10/04,11:00,1.2,0.15,ND
2016/10/04,11:10,1.2,0.14,ND
2016/10/04,11:20,1.3,0.11,ND
2016/10/04,11:30,1.2,0.12,ND
2016/10/04,11:40,1.2,0.12,ND
2016/10/04,11:50,1.2,0.11,ND
2016/10/04,12:00,1.2,0.11,ND
2016/10/04,12:10,1.2,0.12,ND
2016/10/04,12:20,1.2,0.11,ND
2016/10/04,12:30,1.2,0.10,ND
2016/10/04,12:40,1.1,0.11,ND
2016/10/04,12:50,1.1,0.10,ND
2016/10/04,13:00,1.1,0.11,ND
2016/10/04,13:10,1.1,0.11,ND
2016/10/04,13:20,1.2,0.11,ND
2016/10/04,13:30,1.2,0.12,ND
2016/10/04,13:40,1.2,0.10,ND
2016/10/04,13:50,1.2,0.11,ND
2016/10/04,14:00,1.2,0.11,ND
2016/10/04,14:10,1.3,0.11,ND
2016/10/04,14:20,1.3,0.12,ND
2016/10/04,14:30,1.3,0.13,ND
2016/10/04,14:40,1.3,0.14,ND
2016/10/04,14:50,1.3,0.14,ND
2016/10/04,15:00,1.2,0.14,ND
2016/10/04,15:10,1.2,0.15,ND
2016/10/04,15:20,1.2,0.15,ND
2016/10/04,15:30,1.2,0.18,ND
2016/10/04,15:40,1.2,0.17,ND
2016/10/04,15:50,1.1,0.17,ND
2016/10/04,16:00,1.1,0.17,ND
2016/10/04,16:10,1.1,0.15,ND
2016/10/04,16:20,1.2,0.12,ND
2016/10/04,16:30,1.1,0.10,ND
2016/10/04,16:40,1.1,0.092,ND
2016/10/04,16:50,1.1,0.076,ND
2016/10/04,17:00,1.1,0.077,ND
2016/10/04,17:10,1.1,0.073,ND
2016/10/04,17:20,1.1,0.066,ND
2016/10/04,17:30,1.1,0.072,ND
2016/10/04,17:40,1.1,0.074,ND
2016/10/04,17:50,1.0,0.081,ND
2016/10/04,18:00,1.0,0.086,ND
2016/10/04,18:10,1.0,0.095,ND
2016/10/04,18:20,0.99,0.10,ND
2016/10/04,18:30,1.0,0.10,ND
2016/10/04,18:40,1.0,0.099,ND
2016/10/04,18:50,0.99,0.11,ND
2016/10/04,19:00,1.0,0.097,ND
2016/10/04,19:10,1.0,0.089,ND
2016/10/04,19:20,1.1,0.096,ND
2016/10/04,19:30,1.1,0.098,ND
2016/10/04,19:40,1.1,0.093,ND
2016/10/04,19:50,1.1,0.093,ND
2016/10/04,20:00,1.1,0.094,ND
2016/10/04,20:10,1.1,0.094,ND
2016/10/04,20:20,1.1,0.082,ND
2016/10/04,20:30,1.0,0.092,ND
2016/10/04,20:40,1.1,0.091,ND
2016/10/04,20:50,1.1,0.092,ND
2016/10/04,21:00,1.1,0.10,ND
2016/10/04,21:10,1.1,0.11,ND
2016/10/04,21:20,1.1,0.11,ND
2016/10/04,21:30,1.1,0.11,ND
2016/10/04,21:40,1.1,0.11,ND
2016/10/04,21:50,1.2,0.11,ND
2016/10/04,22:00,1.1,0.13,ND
2016/10/04,22:10,1.1,0.10,ND
2016/10/04,22:20,1.1,0.12,ND
2016/10/04,22:30,1.1,0.090,ND
2016/10/04,22:40,1.1,0.091,ND
2016/10/04,22:50,1.1,0.093,ND
2016/10/04,23:00,1.1,0.098,ND
2016/10/04,23:10,1.1,0.12,ND
2016/10/04,23:20,1.0,0.11,ND
2016/10/04,23:30,1.0,0.11,ND
2016/10/04,23:40,1.0,0.087,ND
2016/10/04,23:50,1.0,0.087,ND
